Weather History for Bentonville, AR

Change the Weather History Date:

Saturday, February 23, 2013

  Actual Average Record
Temperature  
Mean Temperature 32 °F -  
Max Temperature 44 °F 53 °F 75 °F (1982)
Min Temperature 21 °F 31 °F 8 °F (1989)
Degree Days  
Heating Degree Days 32    
Moisture  
Dew Point 20 °F    
Average Humidity 64    
Maximum Humidity 93    
Minimum Humidity 39    
Precipitation  
Precipitation 0.00 in - - ()
Sea Level Pressure  
Sea Level Pressure 29.99 in    
Wind  
Wind Speed 1 mph (West)    
Max Wind Speed 10 mph    
Max Gust Speed -    
Visibility 10 miles    
Events      
Averages and records for this station are not official NWS values.
T = Trace of Precipitation, MM = Missing Value Source: NWS Daily Summary

Daily Weather History Graph

Daily Weather History Graph

Search for Another Location

Airport:

Trip Planner

Search our weather history database for the weather conditions in past years. The results will help you decide how hot, cold, wet, or windy it might be!

Date:

Astronomy

Feb. 23, 2013 Rise Set
Actual Time 6:54 AM CST 6:06 PM CST
Civil Twilight 6:28 AM CST 6:32 PM CST
Nautical Twilight 5:58 AM CST 7:02 PM CST
Astronomical Twilight 5:29 AM CST 7:31 PM CST
Moon 4:18 PM CST 5:15 AM CST
Length of Visible Light 12h 03m
Length of Day
11h 11m
Waxing Gibbous, 95% of the Moon is Illuminated
Feb 23
Waxing Gibbous
Feb 25
Full
Mar 4
Last Quarter
Mar 11
New
Mar 19
First Quarter

Hourly Weather History & Observations

Time (CST) Temp. Windchill Dew Point Humidity Pressure Visibility Wind Dir Wind Speed Gust Speed Precip Events Conditions
12:15 AM 26.6 °F - 21.2 °F 80% 30.08 in 10.0 mi Calm Calm - N/A   Clear
12:35 AM 26.6 °F - 19.4 °F 74% 30.07 in 10.0 mi Calm Calm - N/A   Clear
12:55 AM 26.6 °F - 19.4 °F 74% 30.07 in 10.0 mi Calm Calm - N/A   Clear
1:15 AM 26.6 °F - 19.4 °F 74% 30.07 in 10.0 mi Calm Calm - N/A   Clear
1:35 AM 26.6 °F - 19.4 °F 74% 30.06 in 10.0 mi Calm Calm - N/A   Clear
1:55 AM 26.6 °F - 19.4 °F 74% 30.06 in 10.0 mi Calm Calm - N/A   Clear
2:15 AM 24.8 °F - 19.4 °F 80% 30.04 in 10.0 mi Calm Calm - N/A   Clear
2:35 AM 24.8 °F - 19.4 °F 80% 30.04 in 10.0 mi Calm Calm - N/A   Clear
2:55 AM 24.8 °F - 19.4 °F 80% 30.03 in 10.0 mi Calm Calm - N/A   Clear
3:15 AM 23.0 °F - 17.6 °F 80% 30.03 in 9.0 mi Calm Calm - N/A   Clear
3:35 AM 24.8 °F - 19.4 °F 80% 30.03 in 9.0 mi Calm Calm - N/A   Clear
3:55 AM 23.0 °F - 19.4 °F 86% 30.02 in 7.0 mi Calm Calm - N/A   Clear
4:15 AM 21.2 °F - 19.4 °F 93% 30.02 in 7.0 mi Calm Calm - N/A   Clear
4:35 AM 21.2 °F - 19.4 °F 93% 30.02 in 8.0 mi Calm Calm - N/A   Clear
4:55 AM 23.0 °F - 19.4 °F 86% 30.00 in 7.0 mi Calm Calm - N/A   Clear
5:15 AM 23.0 °F - 19.4 °F 86% 30.00 in 7.0 mi Calm Calm - N/A   Clear
5:35 AM 23.0 °F - 19.4 °F 86% 29.99 in 9.0 mi Calm Calm - N/A   Clear
5:55 AM 21.2 °F - 17.6 °F 86% 29.99 in 10.0 mi Calm Calm - N/A   Clear
6:15 AM 23.0 °F - 19.4 °F 86% 30.01 in 7.0 mi Calm Calm - N/A   Clear
6:35 AM 23.0 °F - 19.4 °F 86% 30.00 in 7.0 mi Calm Calm - N/A   Clear
6:55 AM 21.2 °F - 17.6 °F 86% 30.00 in 5.0 mi Calm Calm - N/A   Clear
7:15 AM 21.2 °F - 17.6 °F 86% 30.00 in 7.0 mi Calm Calm - N/A   Clear
7:35 AM 23.0 °F - 17.6 °F 80% 30.01 in 9.0 mi Calm Calm - N/A   Clear
7:55 AM 23.0 °F - 17.6 °F 80% 30.01 in 10.0 mi Calm Calm - N/A   Clear
8:15 AM 24.8 °F - 17.6 °F 74% 30.01 in 10.0 mi Calm Calm - N/A   Clear
8:35 AM 26.6 °F - 17.6 °F 69% 30.01 in 10.0 mi Calm Calm - N/A   Clear
8:55 AM 26.6 °F - 15.8 °F 64% 30.02 in 10.0 mi Calm Calm - N/A   Clear
9:15 AM 26.6 °F - 17.6 °F 69% 30.03 in 10.0 mi Calm Calm - N/A   Clear
9:35 AM 26.6 °F - 15.8 °F 64% 30.02 in 10.0 mi Calm Calm - N/A   Clear
9:55 AM 28.4 °F - 19.4 °F 69% 30.03 in 10.0 mi Calm Calm - N/A   Clear
10:15 AM 30.2 °F - 15.8 °F 55% 30.03 in 10.0 mi Calm Calm - N/A   Clear
10:35 AM 30.2 °F - 15.8 °F 55% 30.03 in 10.0 mi Calm Calm - N/A   Clear
10:55 AM 32.0 °F - 15.8 °F 51% 30.03 in 10.0 mi Calm Calm - N/A   Clear
11:15 AM 33.8 °F - 15.8 °F 48% 30.04 in 10.0 mi Calm Calm - N/A   Clear
11:35 AM 33.8 °F 29.6 °F 17.6 °F 52% 30.03 in 10.0 mi West 4.6 mph - N/A   Clear
11:55 AM 35.6 °F 31.7 °F 19.4 °F 52% 30.03 in 10.0 mi WNW 4.6 mph - N/A   Clear
12:15 PM 35.6 °F 30.7 °F 19.4 °F 52% 30.03 in 10.0 mi West 5.8 mph - N/A   Clear
12:35 PM 37.4 °F 32.1 °F 19.4 °F 48% 30.02 in 10.0 mi SW 6.9 mph - N/A   Clear
12:55 PM 37.4 °F 34.9 °F 21.2 °F 52% 30.02 in 10.0 mi WSW 3.5 mph - N/A   Clear
1:15 PM 39.2 °F 37.0 °F 21.2 °F 49% 30.01 in 10.0 mi SSW 3.5 mph - N/A   Partly Cloudy
1:35 PM 39.2 °F 32.5 °F 19.4 °F 45% 29.99 in 10.0 mi West 10.4 mph - N/A   Partly Cloudy
1:55 PM 41.0 °F 35.8 °F 19.4 °F 42% 29.99 in 10.0 mi WSW 8.1 mph - N/A   Clear
2:15 PM 41.0 °F 35.2 °F 21.2 °F 45% 29.98 in 10.0 mi West 9.2 mph - N/A   Clear
2:35 PM 41.0 °F 35.8 °F 21.2 °F 45% 29.97 in 10.0 mi WNW 8.1 mph - N/A   Clear
2:55 PM 42.8 °F 38.0 °F 21.2 °F 42% 29.96 in 10.0 mi WNW 8.1 mph - N/A   Clear
3:15 PM 42.8 °F 40.1 °F 24.8 °F 49% 29.96 in 10.0 mi NW 4.6 mph - N/A   Clear
3:35 PM 42.8 °F 39.3 °F 21.2 °F 42% 29.95 in 10.0 mi WNW 5.8 mph - N/A   Clear
3:55 PM 42.8 °F - 21.2 °F 42% 29.94 in 10.0 mi Calm Calm - N/A   Clear
4:15 PM 42.8 °F - 19.4 °F 39% 29.94 in 10.0 mi Calm Calm - N/A   Clear
4:35 PM 42.8 °F - 21.2 °F 42% 29.93 in 10.0 mi Calm Calm - N/A   Clear
4:55 PM 44.6 °F - 23.0 °F 43% 29.94 in 10.0 mi Calm Calm - N/A   Clear
5:15 PM 42.8 °F 40.1 °F 23.0 °F 46% 29.94 in 10.0 mi NW 4.6 mph - N/A   Clear
5:35 PM 42.8 °F - 23.0 °F 46% 29.93 in 10.0 mi Calm Calm - N/A   Clear
5:55 PM 42.8 °F - 23.0 °F 46% 29.94 in 10.0 mi Calm Calm - N/A   Clear
6:15 PM 39.2 °F - 23.0 °F 52% 29.94 in 10.0 mi Calm Calm - N/A   Clear
6:55 PM 37.4 °F - 19.4 °F 48% 29.94 in 10.0 mi Calm Calm - N/A   Clear
7:15 PM 37.4 °F - 21.2 °F 52% 29.94 in 10.0 mi Calm Calm - N/A   Clear
7:35 PM 35.6 °F - 23.0 °F 60% 29.95 in 10.0 mi Calm Calm - N/A   Clear
7:55 PM 35.6 °F - 24.8 °F 65% 29.96 in 10.0 mi Calm Calm - N/A   Clear
8:15 PM 33.8 °F - 24.8 °F 70% 29.95 in 10.0 mi Calm Calm - N/A   Clear
8:35 PM 35.6 °F 32.8 °F 23.0 °F 60% 29.95 in 10.0 mi NE 3.5 mph - N/A   Clear
8:55 PM 33.8 °F 30.8 °F 21.2 °F 60% 29.95 in 10.0 mi ENE 3.5 mph - N/A   Clear
9:15 PM 35.6 °F 32.8 °F 21.2 °F 56% 29.95 in 10.0 mi East 3.5 mph - N/A   Clear
9:35 PM 35.6 °F 32.8 °F 21.2 °F 56% 29.95 in 10.0 mi East 3.5 mph - N/A   Clear
9:55 PM 33.8 °F 29.6 °F 21.2 °F 60% 29.95 in 10.0 mi East 4.6 mph - N/A   Clear
10:15 PM 33.8 °F 29.6 °F 21.2 °F 60% 29.95 in 10.0 mi East 4.6 mph - N/A   Clear
10:35 PM 33.8 °F 28.6 °F 21.2 °F 60% 29.95 in 10.0 mi ESE 5.8 mph - N/A   Clear
10:55 PM 32.0 °F 28.7 °F 21.2 °F 64% 29.95 in 10.0 mi SE 3.5 mph - N/A   Clear
11:15 PM 32.0 °F - 23.0 °F 69% 29.95 in 10.0 mi Calm Calm - N/A   Clear
11:35 PM 32.0 °F 28.7 °F 23.0 °F 69% 29.95 in 10.0 mi ESE 3.5 mph - N/A   Clear
11:55 PM 32.0 °F 28.7 °F 21.2 °F 64% 29.95 in 10.0 mi ESE 3.5 mph - N/A   Clear